Location: ASU Dark Sky Observatory
(36.2504°N, 81.4125°W)
Time: 00:52:24
(UTC-04:00)

Daily predictions for brighter satellites

Satellite Brightness Start Highest point End
(mag) Time Altitude Azimuth Time Altitude Azimuth Time Altitude Azimuth
Cosmos 2026 Rocket 4.3 00:25:32 56° W 00:25:35 56° W 00:31:42 10° N
CZ-4B R/B 4.4 00:23:09 10° N 00:27:00 42° NW 00:27:00 42° NW
S3M 4.2 00:41:09 10° N 00:46:18 64° NNW 00:46:18 64° NNW
Cosmos 2297 Rocket 3.3 00:43:52 10° N 00:48:16 38° NE 00:48:16 38° NE
ATLAS 5 CENTAUR R/B 4.4 00:56:41 10° WNW 00:59:24 18° W 00:59:24 18° W
ATLAS CENTAUR R/B 4.1 01:05:55 15° NNW 01:05:55 15° NNW 01:07:09 10° N
Mayak 1.2 01:25:20 10° N 01:26:48 21° N 01:26:48 21° N
USA 229 DEB 3.8 01:38:24 69° N 01:38:24 69° N 01:44:29 10° NNE
USA 229 3.8 01:38:31 69° NNE 01:38:31 69° NNE 01:44:35 10° NNE
Cosmos 2227 Rocket 3.4 01:32:46 10° NNW 01:36:06 35° NW 01:36:06 35° NW
CZ-2C R/B 4.3 01:38:41 10° NNW 01:42:04 24° NW 01:42:04 24° NW
Cosmos 2315 Rocket 4.5 01:37:26 10° N 01:42:16 55° NNW 01:42:16 55° NNW
Cosmos 1980 Rocket 3.0 02:03:42 47° NNE 02:03:42 47° NNE 02:07:39 10° NNE
CZ-4C R/B 3.6 01:57:05 10° NNW 02:04:06 49° NE 02:06:47 36° ESE
BREEZE-M DEB (TANK) 4.3 01:44:19 10° NW 02:06:40 75° SW 02:07:14 73° SSW
Cosmos 1238 Rocket 4.4 02:05:35 10° N 02:09:20 50° N 02:09:20 50° N
NOSS 3-1 (C) 3.7 02:29:04 63° N 02:29:04 63° N 02:34:27 10° NNE
Cosmos 1697 Rocket 4.0 02:30:56 30° NW 02:30:56 30° NW 02:35:19 10° N
Cosmos 2297 Rocket 4.3 02:28:31 10° NW 02:30:03 16° WNW 02:30:03 16° WNW
Nadezhda 1 Rocket 4.1 02:36:17 10° N 02:41:30 64° NNW 02:41:30 64° NNW
Cosmos 1709 Rocket 4.1 02:42:48 64° ENE 02:42:48 64° ENE 02:48:29 10° NNE
SL-16 R/B 2.7 02:44:16 54° ENE 02:44:16 54° ENE 02:48:53 10° NNE
BREEZE M DEB (TANK) 4.3 02:48:28 50° NW 02:48:30 50° NW 02:51:56 10° NE
Cosmos 2322 Rocket 2.5 02:53:12 65° NE 02:53:12 65° NE 02:58:06 10° NNE
SL-16 R/B 3.9 02:55:29 21° ESE 02:58:44 35° ENE 03:04:17 10° N
USA 234 3.5 03:00:44 10° NE 03:07:07 59° NW 03:08:24 50° W
Resurs 1-4 Rocket 2.8 03:15:01 10° NNE 03:20:04 44° E 03:20:23 44° ESE
IRS-1C 4.2 03:14:59 10° NNE 03:20:14 69° E 03:20:14 69° E
Cosmos 2181 Rocket 3.9 03:14:58 10° N 03:21:25 89° W 03:22:06 73° S
ARIANE 5 R/B 3.3 03:21:15 10° NNE 03:26:08 43° E 03:26:38 42° ESE
Meteor 2-13 Rocket 4.5 03:26:01 63° SE 03:26:52 72° E 03:33:00 10° NNE
ATLAS 2AS CENTAUR R/B 3.6 03:26:52 38° SSE 03:29:03 46° ESE 03:36:38 10° NE
ADEOS Rocket 2.8 03:24:58 10° N 03:31:10 75° WNW 03:31:34 72° WSW
SL-08 ROCKET BODY 4.3 03:31:22 73° S 03:32:01 88° W 03:38:08 10° N
NOSS 3-1 (A) 4.3 03:33:28 34° WNW 03:34:31 36° NW 03:40:25 10° NNE
Cosmos 1331 Rocket 4.0 03:36:02 70° NW 03:36:02 70° NW 03:40:57 10° NNE
NPP 3.8 03:31:03 10° N 03:36:18 59° WNW 03:36:18 59° WNW
SL-08 R/B 3.7 03:37:31 52° NW 03:37:31 52° NW 03:41:05 10° NNW
BREEZE-M DEB (TANK) 4.3 03:36:06 28° ESE 03:36:30 29° ESE 03:44:16 10° ENE
Cosmos 2228 4.4 03:36:55 30° ESE 03:37:20 30° E 03:41:05 10° NNE
CZ-2D R/B 2.2 03:34:33 10° NNE 03:40:02 70° ESE 03:40:47 61° SSE
COBE Rocket 4.3 03:35:44 10° N 03:40:35 54° WNW 03:40:35 54° WNW
Cosmos 2263 Rocket 2.1 03:35:39 10° NNW 03:41:23 87° ENE 03:42:29 60° SSE
ERS-1 4.4 03:36:34 10° NNE 03:41:39 76° ESE 03:41:54 74° SE
NOSS 2-3 (E) 3.9 03:41:49 68° ESE 03:41:49 68° ESE 03:46:52 10° NE
Cosmos 2360 Rocket 2.0 03:44:09 71° S 03:44:47 84° ESE 03:50:28 10° NNE
Cosmos 1980 Rocket 4.4 03:45:28 12° WNW 03:46:43 13° NW 03:49:14 10° NNW
COSMOS 2428 3.8 03:45:35 30° SE 03:47:22 37° ESE 03:52:36 10° NE
Cosmos 2219 Rocket 4.1 03:46:42 15° SE 03:49:33 22° E 03:53:44 10° NE
CBERS-1 4.5 03:44:40 10° N 03:49:31 46° WNW 03:49:31 46° WNW
DELTA 2 R/B (1) 3.4 03:49:16 74° SSW 03:49:39 79° SSE 03:55:14 10° ENE
Cosmos 44 4.0 03:46:05 10° NNW 03:50:19 45° ENE 03:54:16 12° SE
Cosmos 2074 Rocket 3.9 03:49:38 57° SSW 03:51:04 84° W 03:57:24 10° N
CZ-4C R/B 3.6 03:45:55 10° NW 03:51:52 36° W 03:51:52 36° W
OAO 3 Rocket 3.3 03:54:41 60° SE 03:54:41 60° SE 03:58:59 10° E
Cosmos 2058 Rocket 3.3 03:56:09 58° SE 03:56:40 63° E 04:01:08 10° NNE
Cosmos 1486 Rocket 4.5 03:52:46 10° N 03:58:01 60° ENE 04:01:31 21° SE
Intelsat 5-1 Rocket 4.4 03:59:38 17° SE 03:59:38 17° SE 04:02:50 10° ESE
Cosmos 1953 Rocket 3.5 03:56:47 10° N 04:01:16 81° E 04:01:44 70° SSE
Uosat 12 SS-18 rocket 4.4 04:02:03 57° W 04:02:30 60° WNW 04:07:54 10° NNE
Centaur D AC-29 2.8 04:03:54 29° SSE 04:03:54 29° SSE 04:10:49 10° ESE
CBERS 1 LM4 rocket 4.2 04:00:21 10° N 04:05:05 71° WNW 04:05:37 64° WSW
Centaur D AC-25 4.0 03:54:02 10° W 04:07:55 26° SSE 04:10:00 10° SE
Cosmos 2333 Rocket 4.0 04:02:59 14° SSE 04:06:36 24° ESE 04:11:05 10° NE
MOS 1 Rocket 3.0 04:02:55 10° NNE 04:07:27 82° ESE 04:07:59 67° S
Cosmos 2322 3.6 04:06:52 54° SW 04:08:08 75° WNW 04:13:48 10° NNE
Meteor 2-5 Rocket 4.2 04:04:24 10° N 04:10:00 59° E 04:14:49 14° SSE
Cosmos 2154 Rocket 4.2 04:07:32 31° S 04:10:43 72° E 04:16:59 10° N
Cosmos 1610 Rocket 4.3 04:12:36 41° SSW 04:14:52 81° W 04:21:02 10° N
NOSS 2-3 (C) 4.0 04:14:04 51° W 04:14:55 60° NW 04:20:11 10° NNE
Okean O Rocket 4.3 04:13:13 10° ENE 04:15:24 13° E 04:17:35 10° ESE
SL-8 R/B 4.0 04:14:20 45° W 04:15:29 58° NNW 04:20:16 10° NE
Iridium 4 Rocket 3.8 04:18:26 42° SSW 04:20:20 66° W 04:26:02 10° N
Cosmos 1726 Rocket 3.9 04:21:10 45° W 04:21:16 45° W 04:25:31 10° N
UNK 4.2 04:22:02 42° W 04:22:02 42° W 04:26:18 10° NNW
Cosmos 1766 4.3 04:22:42 27° SE 04:24:20 42° E 04:28:04 10° NNE
Cosmos 1707 2.5 04:20:41 10° N 04:24:33 83° W 04:25:01 67° S
SL-16 R/B 4.0 04:26:08 15° WNW 04:27:51 17° NW 04:31:31 10° NNW
ADEOS 3.8 04:23:45 10° N 04:28:48 51° WNW 04:30:19 39° WSW
ISS -2.1 04:25:52 10° NNW 04:28:54 34° NE 04:31:55 10° ESE
Meteor 1-4 Rocket 4.3 04:30:12 20° NW 04:30:12 20° NW 04:32:10 10° NNW
Cosmos 2341 Rocket 4.2 04:25:24 21° S 04:29:52 73° E 04:36:14 10° N
Cosmos 44 Rocket 3.2 04:27:08 10° NW 04:31:47 58° WSW 04:34:04 29° S
Cosmos 1607 4.4 04:26:12 10° NNW 04:32:38 66° ENE 04:39:02 10° SE
USA 161 3.5 04:32:20 12° SE 04:34:44 30° ENE 04:37:24 10° NNE
Cosmos 1378 2.9 04:31:08 10° N 04:34:52 77° W 04:35:39 53° SSW
IRS-1D 4.4 04:32:33 10° N 04:36:55 32° WNW 04:38:04 28° W
Cosmos 2322 Rocket 4.2 04:35:01 12° WNW 04:37:05 15° NW 04:40:11 10° NNW
Cosmos 2333 4.2 04:34:25 32° SSW 04:37:11 88° WNW 04:42:55 10° NNE
H-2A R/B 3.4 04:12:45 10° W 04:38:10 55° SSW 04:42:54 10° SE
SL-16 R/B 3.2 04:40:35 30° SW 04:42:15 34° W 04:47:53 10° NNW
CZ-2D R/B 3.6 04:38:55 10° N 04:43:10 60° WNW 04:44:33 38° SW
Meteor 2-8 Rocket 4.5 04:42:01 10° NNW 04:48:00 60° W 04:52:37 18° SSW
Cosmos 1503 Rocket 4.0 04:44:51 10° NNW 04:50:11 88° WSW 04:55:32 10° SSE
Cosmos 1340 Rocket 2.6 04:54:11 10° NNW 04:58:09 72° W 05:01:10 16° S
ERBS 4.0 04:57:36 17° S 04:59:27 26° SE 05:02:24 10° ENE
ADEOS II 2.4 04:54:19 10° NNE 04:59:32 65° E 05:04:44 10° S
Resurs 1-4 Rocket 3.6 04:55:45 10° NNW 04:59:33 20° WNW 05:01:28 17° W
Cosmos 1805 3.6 04:56:54 15° S 04:59:59 65° E 05:03:52 10° NNE
Meteor 1-22 Rocket 4.3 04:57:20 20° SSW 05:01:20 69° W 05:07:12 10° N
ARIANE 5 R/B 4.1 05:01:13 10° NNW 05:04:56 21° WNW 05:06:58 16° W
BREEZE-M DEB (TANK) 3.2 05:05:01 19° W 05:06:49 41° NNW 05:11:43 10° NE
Cosmos 1932 4.4 05:01:38 10° NNW 05:08:07 75° WSW 05:14:26 10° SSE
PSLV R/B 4.3 05:04:08 10° NNE 05:08:26 53° E 05:12:43 10° S
Cosmos 1992 Rocket 4.2 05:07:17 21° SW 05:10:35 54° WNW 05:15:41 10° N
Cosmos 1271 Rocket 4.1 05:11:22 21° WSW 05:12:40 25° WNW 05:16:00 10° NNW
Lacrosse 5 rocket 4.0 05:12:35 10° NNW 05:15:55 24° NE 05:19:24 10° E
UNKNOWN OBJECT B 4.4 05:13:30 10° NNW 05:16:13 19° WNW 05:17:32 16° W
Cosmos 1184 Rocket 4.2 05:14:43 10° NW 05:17:17 21° W 05:17:42 20° WSW
Cosmos 1758 3.4 05:15:04 10° S 05:19:03 83° E 05:23:06 10° N
CZ-2D R/B 4.1 05:16:35 10° NNW 05:19:26 15° WNW 05:22:06 10° W
ATLAS 2AS CENTAUR R/B 3.8 05:14:19 16° WSW 05:20:10 41° NW 05:27:46 10° NNE
Cosmos 389 Rocket 3.7 05:21:17 19° WSW 05:22:48 26° WNW 05:25:53 10° NNW
Cosmos 1809 Rocket 4.4 05:18:34 10° SSW 05:24:38 72° W 05:30:48 10° N
Cosmos 1953 2.3 05:22:38 10° S 05:26:39 87° ESE 05:30:42 10° N
Abrixas rocket 2.8 05:25:02 17° SSW 05:27:22 47° SE 05:30:35 10° ENE
NOSS 3-4 (A) 4.1 05:21:36 10° SSW 05:27:43 56° ESE 05:33:57 10° NE
NOSS 3-4 (C) 4.1 05:21:41 10° SSW 05:27:47 55° ESE 05:34:01 10° NE
CZ-4B R/B 2.8 05:24:45 10° N 05:28:37 74° WNW 05:32:39 10° SSW
Lacrosse 5 3.2 05:24:46 10° S 05:29:20 34° ESE 05:33:54 10° ENE
Cosmos 2360 Rocket 4.2 05:26:48 10° W 05:29:29 13° NW 05:32:12 10° NNW
In-Cosmos 22 4.2 05:26:18 10° NNW 05:31:30 54° W 05:36:37 10° S
COSMOS 2428 3.9 05:27:37 14° WSW 05:31:40 29° WNW 05:36:35 10° N
Cosmos 2219 Rocket 2.7 05:28:26 14° SW 05:33:06 46° WNW 05:38:33 10° N
Meteor 1-31 Rocket 4.4 05:29:40 10° NNE 05:33:12 34° E 05:36:43 10° SSE
Cosmos 1980 3.7 05:28:25 10° SSW 05:34:04 77° WNW 05:39:47 10° NNE
Cosmos 2237 Rocket 2.2 05:30:20 10° SSW 05:35:58 80° WNW 05:41:37 10° NNE
Aureole 2 Rocket 4.0 05:33:21 14° WSW 05:36:14 28° WNW 05:39:47 10° N
DELTA 2 R/B (1) 4.0 05:30:46 10° W 05:36:17 62° N 05:41:48 10° ENE
PAYLOAD B 4.3 05:31:23 10° NNE 05:37:01 84° WNW 05:42:37 10° SSW
OAO 3 Rocket 3.2 05:32:46 10° W 05:37:37 76° S 05:42:32 10° E
Meteor 2-14 Rocket 4.4 05:32:05 10° S 05:38:08 77° W 05:44:13 10° N
SL-8 Rocket 4.3 05:32:57 10° SSW 05:39:02 50° W 05:45:10 10° N
SEDSat Delta rocket 3.5 05:36:49 13° WSW 05:40:11 41° S 05:44:21 10° ESE
Cosmos-2242 4.1 05:37:41 10° SSE 05:41:44 45° E 05:45:50 10° NNE
PSLV R/B 4.4 05:38:59 10° N 05:42:39 39° WNW 05:46:23 10° SW
ATLAS CENTAUR R/B 3.9 05:39:45 10° NNW 05:43:20 23° NNE 05:45:22 10° E
Chunghua 1 4.5 05:39:53 10° W 05:43:34 71° S 05:47:15 10° E
CZ-4B R/B 3.3 05:38:36 10° NNE 05:44:17 83° WNW 05:49:52 10° SSW
Cosmos 1844 Rocket 3.2 05:40:33 10° NW 05:45:45 38° WSW 05:50:56 10° S
Cosmos 1470 2.8 05:42:47 10° S 05:46:44 86° ESE 05:50:40 10° N
Cosmos 2333 Rocket 2.8 05:45:12 10° SW 05:50:33 41° WNW 05:55:55 10° N
SeaSat 1 2.5 05:46:03 10° S 05:50:53 57° WSW 05:55:45 10° NNW
Okean O Rocket 2.0 05:47:42 10° N 05:51:59 47° WNW 05:56:15 10° SSW
Atlas Centaur 2 3.5 05:49:34 10° SSW 05:52:56 21° SSE 05:56:53 10° ESE
Timation 1 Rocket 4.5 05:47:21 10° NNW 05:53:20 87° ENE 05:59:20 10° SSE
IRS-1C Rocket 4.1 05:49:16 10° N 05:54:29 68° WNW 05:59:41 10° SSW
ATLAS 3B R/B 2.7 05:49:24 10° NW 05:55:50 53° WSW 06:02:04 10° S
Okean 3 Rocket 3.7 05:51:58 10° NNW 05:56:20 58° W 06:00:43 10° S
Cosmos 1818 3.6 05:55:29 10° SW 06:00:54 76° WNW 06:06:22 10° NNE
